2017-008F

Last updated on Wed Mar 01 2017 00:15:03 GMT+0000 (Coordinated Universal Time)

1 41953U 17008F 17059.68121767 .00001619 00000-0 73712-4 0 9999 2 41953 97.5105 121.2981 0006530 227.9910 132.0767 15.22150277 2021
UTC large
Height (km)
Speed (km/s)
/
Latitude / Longitude
Inclination (degrees)
Orbital Period (minutes)
Azimuth
Elevation
Range (km)
Doppler Factor

Next 0 passes for location: London (51.5072 / 0.1276)

Sorry there are no passes over London.